Index of /20260420/WXO-DD/model_rdps/10km/06/050
Name Last modified Size Description
Parent Directory -
20260420T06Z_MSC_RDPS_AbsoluteVorticity_IsbL-0250_RLatLon0.09_PT050H.grib2 2026-04-20 08:55 611K
20260420T06Z_MSC_RDPS_AbsoluteVorticity_IsbL-0500_RLatLon0.09_PT050H.grib2 2026-04-20 08:55 568K
20260420T06Z_MSC_RDPS_AbsoluteVorticity_IsbL-0700_RLatLon0.09_PT050H.grib2 2026-04-20 08:55 623K
20260420T06Z_MSC_RDPS_AbsoluteVorticity_IsbL-0850_RLatLon0.09_PT050H.grib2 2026-04-20 08:55 786K
20260420T06Z_MSC_RDPS_AirTemp_AGL-120m_RLatLon0.09_PT050H.grib2 2026-04-20 08:55 381K
20260420T06Z_MSC_RDPS_AirTemp_AGL-2m_RLatLon0.09_PT050H.grib2 2026-04-20 08:55 646K
20260420T06Z_MSC_RDPS_AirTemp_AGL-40m_RLatLon0.09_PT050H.grib2 2026-04-20 08:55 399K
20260420T06Z_MSC_RDPS_AirTemp_AGL-80m_RLatLon0.09_PT050H.grib2 2026-04-20 08:55 388K
20260420T06Z_MSC_RDPS_AirTemp_IsbL-0001_RLatLon0.09_PT050H.grib2 2026-04-20 08:55 223K
20260420T06Z_MSC_RDPS_AirTemp_IsbL-0005_RLatLon0.09_PT050H.grib2 2026-04-20 08:55 334K
20260420T06Z_MSC_RDPS_AirTemp_IsbL-0010_RLatLon0.09_PT050H.grib2 2026-04-20 08:55 307K
20260420T06Z_MSC_RDPS_AirTemp_IsbL-0020_RLatLon0.09_PT050H.grib2 2026-04-20 08:55 327K
20260420T06Z_MSC_RDPS_AirTemp_IsbL-0030_RLatLon0.09_PT050H.grib2 2026-04-20 08:55 354K
20260420T06Z_MSC_RDPS_AirTemp_IsbL-0050_RLatLon0.09_PT050H.grib2 2026-04-20 08:55 337K
20260420T06Z_MSC_RDPS_AirTemp_IsbL-0100_RLatLon0.09_PT050H.grib2 2026-04-20 08:55 406K
20260420T06Z_MSC_RDPS_AirTemp_IsbL-0150_RLatLon0.09_PT050H.grib2 2026-04-20 08:55 430K
20260420T06Z_MSC_RDPS_AirTemp_IsbL-0175_RLatLon0.09_PT050H.grib2 2026-04-20 08:55 425K
20260420T06Z_MSC_RDPS_AirTemp_IsbL-0200_RLatLon0.09_PT050H.grib2 2026-04-20 08:55 426K
20260420T06Z_MSC_RDPS_AirTemp_IsbL-0225_RLatLon0.09_PT050H.grib2 2026-04-20 08:55 422K
20260420T06Z_MSC_RDPS_AirTemp_IsbL-0250_RLatLon0.09_PT050H.grib2 2026-04-20 08:55 424K
20260420T06Z_MSC_RDPS_AirTemp_IsbL-0275_RLatLon0.09_PT050H.grib2 2026-04-20 08:55 404K
20260420T06Z_MSC_RDPS_AirTemp_IsbL-0300_RLatLon0.09_PT050H.grib2 2026-04-20 08:55 410K
20260420T06Z_MSC_RDPS_AirTemp_IsbL-0350_RLatLon0.09_PT050H.grib2 2026-04-20 08:55 426K
20260420T06Z_MSC_RDPS_AirTemp_IsbL-0400_RLatLon0.09_PT050H.grib2 2026-04-20 08:55 430K
20260420T06Z_MSC_RDPS_AirTemp_IsbL-0450_RLatLon0.09_PT050H.grib2 2026-04-20 08:55 404K
20260420T06Z_MSC_RDPS_AirTemp_IsbL-0500_RLatLon0.09_PT050H.grib2 2026-04-20 08:55 418K
20260420T06Z_MSC_RDPS_AirTemp_IsbL-0550_RLatLon0.09_PT050H.grib2 2026-04-20 08:55 438K
20260420T06Z_MSC_RDPS_AirTemp_IsbL-0600_RLatLon0.09_PT050H.grib2 2026-04-20 08:55 457K
20260420T06Z_MSC_RDPS_AirTemp_IsbL-0650_RLatLon0.09_PT050H.grib2 2026-04-20 08:55 468K
20260420T06Z_MSC_RDPS_AirTemp_IsbL-0700_RLatLon0.09_PT050H.grib2 2026-04-20 08:55 491K
20260420T06Z_MSC_RDPS_AirTemp_IsbL-0750_RLatLon0.09_PT050H.grib2 2026-04-20 08:55 534K
20260420T06Z_MSC_RDPS_AirTemp_IsbL-0800_RLatLon0.09_PT050H.grib2 2026-04-20 08:55 592K
20260420T06Z_MSC_RDPS_AirTemp_IsbL-0850_RLatLon0.09_PT050H.grib2 2026-04-20 08:55 508K
20260420T06Z_MSC_RDPS_AirTemp_IsbL-0875_RLatLon0.09_PT050H.grib2 2026-04-20 08:55 515K
20260420T06Z_MSC_RDPS_AirTemp_IsbL-0900_RLatLon0.09_PT050H.grib2 2026-04-20 08:55 518K
20260420T06Z_MSC_RDPS_AirTemp_IsbL-0925_RLatLon0.09_PT050H.grib2 2026-04-20 08:55 514K
20260420T06Z_MSC_RDPS_AirTemp_IsbL-0950_RLatLon0.09_PT050H.grib2 2026-04-20 08:55 522K
20260420T06Z_MSC_RDPS_AirTemp_IsbL-0970_RLatLon0.09_PT050H.grib2 2026-04-20 08:55 524K
20260420T06Z_MSC_RDPS_AirTemp_IsbL-0985_RLatLon0.09_PT050H.grib2 2026-04-20 08:55 518K
20260420T06Z_MSC_RDPS_AirTemp_IsbL-1000_RLatLon0.09_PT050H.grib2 2026-04-20 08:55 502K
20260420T06Z_MSC_RDPS_AirTemp_IsbL-1015_RLatLon0.09_PT050H.grib2 2026-04-20 08:55 496K
20260420T06Z_MSC_RDPS_Albedo_Sfc_RLatLon0.09_PT050H.grib2 2026-04-20 08:55 166K
20260420T06Z_MSC_RDPS_CAPE_Sfc_RLatLon0.09_PT050H.grib2 2026-04-20 08:55 1.6M
20260420T06Z_MSC_RDPS_CIN_Sfc_RLatLon0.09_PT050H.grib2 2026-04-20 08:55 1.1M
20260420T06Z_MSC_RDPS_CloudWater_EAtm_RLatLon0.09_PT050H.grib2 2026-04-20 08:55 217K
20260420T06Z_MSC_RDPS_ConvectivePrecip-Accum_Sfc_RLatLon0.09_PT050H.grib2 2026-04-20 08:55 1.1M
20260420T06Z_MSC_RDPS_DewPointDepression_AGL-2m_RLatLon0.09_PT050H.grib2 2026-04-20 08:55 393K
20260420T06Z_MSC_RDPS_DewPointDepression_IsbL-0001_RLatLon0.09_PT050H.grib2 2026-04-20 08:55 193
20260420T06Z_MSC_RDPS_DewPointDepression_IsbL-0005_RLatLon0.09_PT050H.grib2 2026-04-20 08:55 193
20260420T06Z_MSC_RDPS_DewPointDepression_IsbL-0010_RLatLon0.09_PT050H.grib2 2026-04-20 08:55 193
20260420T06Z_MSC_RDPS_DewPointDepression_IsbL-0020_RLatLon0.09_PT050H.grib2 2026-04-20 08:55 193
20260420T06Z_MSC_RDPS_DewPointDepression_IsbL-0030_RLatLon0.09_PT050H.grib2 2026-04-20 08:55 193
20260420T06Z_MSC_RDPS_DewPointDepression_IsbL-0050_RLatLon0.09_PT050H.grib2 2026-04-20 08:55 94K
20260420T06Z_MSC_RDPS_DewPointDepression_IsbL-0100_RLatLon0.09_PT050H.grib2 2026-04-20 08:55 128K
20260420T06Z_MSC_RDPS_DewPointDepression_IsbL-0150_RLatLon0.09_PT050H.grib2 2026-04-20 08:55 153K
20260420T06Z_MSC_RDPS_DewPointDepression_IsbL-0175_RLatLon0.09_PT050H.grib2 2026-04-20 08:55 190K
20260420T06Z_MSC_RDPS_DewPointDepression_IsbL-0200_RLatLon0.09_PT050H.grib2 2026-04-20 08:55 228K
20260420T06Z_MSC_RDPS_DewPointDepression_IsbL-0225_RLatLon0.09_PT050H.grib2 2026-04-20 08:55 258K
20260420T06Z_MSC_RDPS_DewPointDepression_IsbL-0250_RLatLon0.09_PT050H.grib2 2026-04-20 08:55 296K
20260420T06Z_MSC_RDPS_DewPointDepression_IsbL-0275_RLatLon0.09_PT050H.grib2 2026-04-20 08:55 308K
20260420T06Z_MSC_RDPS_DewPointDepression_IsbL-0300_RLatLon0.09_PT050H.grib2 2026-04-20 08:55 331K
20260420T06Z_MSC_RDPS_DewPointDepression_IsbL-0350_RLatLon0.09_PT050H.grib2 2026-04-20 08:55 338K
20260420T06Z_MSC_RDPS_DewPointDepression_IsbL-0400_RLatLon0.09_PT050H.grib2 2026-04-20 08:55 348K
20260420T06Z_MSC_RDPS_DewPointDepression_IsbL-0450_RLatLon0.09_PT050H.grib2 2026-04-20 08:55 357K
20260420T06Z_MSC_RDPS_DewPointDepression_IsbL-0500_RLatLon0.09_PT050H.grib2 2026-04-20 08:55 367K
20260420T06Z_MSC_RDPS_DewPointDepression_IsbL-0550_RLatLon0.09_PT050H.grib2 2026-04-20 08:55 384K
20260420T06Z_MSC_RDPS_DewPointDepression_IsbL-0600_RLatLon0.09_PT050H.grib2 2026-04-20 08:55 395K
20260420T06Z_MSC_RDPS_DewPointDepression_IsbL-0650_RLatLon0.09_PT050H.grib2 2026-04-20 08:55 395K
20260420T06Z_MSC_RDPS_DewPointDepression_IsbL-0700_RLatLon0.09_PT050H.grib2 2026-04-20 08:55 399K
20260420T06Z_MSC_RDPS_DewPointDepression_IsbL-0750_RLatLon0.09_PT050H.grib2 2026-04-20 08:55 418K
20260420T06Z_MSC_RDPS_DewPointDepression_IsbL-0800_RLatLon0.09_PT050H.grib2 2026-04-20 08:55 455K
20260420T06Z_MSC_RDPS_DewPointDepression_IsbL-0850_RLatLon0.09_PT050H.grib2 2026-04-20 08:55 463K
20260420T06Z_MSC_RDPS_DewPointDepression_IsbL-0875_RLatLon0.09_PT050H.grib2 2026-04-20 08:55 455K
20260420T06Z_MSC_RDPS_DewPointDepression_IsbL-0900_RLatLon0.09_PT050H.grib2 2026-04-20 08:55 449K
20260420T06Z_MSC_RDPS_DewPointDepression_IsbL-0925_RLatLon0.09_PT050H.grib2 2026-04-20 08:55 442K
20260420T06Z_MSC_RDPS_DewPointDepression_IsbL-0950_RLatLon0.09_PT050H.grib2 2026-04-20 08:55 440K
20260420T06Z_MSC_RDPS_DewPointDepression_IsbL-0970_RLatLon0.09_PT050H.grib2 2026-04-20 08:55 435K
20260420T06Z_MSC_RDPS_DewPointDepression_IsbL-0985_RLatLon0.09_PT050H.grib2 2026-04-20 08:55 433K
20260420T06Z_MSC_RDPS_DewPointDepression_IsbL-1000_RLatLon0.09_PT050H.grib2 2026-04-20 08:55 427K
20260420T06Z_MSC_RDPS_DewPointDepression_IsbL-1015_RLatLon0.09_PT050H.grib2 2026-04-20 08:55 419K
20260420T06Z_MSC_RDPS_DewPoint_AGL-2m_RLatLon0.09_PT050H.grib2 2026-04-20 08:55 311K
20260420T06Z_MSC_RDPS_DownwardLongwaveRadiationFlux-Accum_Sfc_RLatLon0.09_PT050H.grib2 2026-04-20 08:55 369K
20260420T06Z_MSC_RDPS_DownwardShortwaveRadiationFlux-Accum_NTAtm_RLatLon0.09_PT050H.grib2 2026-04-20 08:55 123K
20260420T06Z_MSC_RDPS_DownwardShortwaveRadiationFlux-Accum_Sfc_RLatLon0.09_PT050H.grib2 2026-04-20 08:55 546K
20260420T06Z_MSC_RDPS_FreezingRain-Accum1h_Sfc_RLatLon0.09_PT050H.grib2 2026-04-20 08:55 33K
20260420T06Z_MSC_RDPS_FreezingRain-Accum_Sfc_RLatLon0.09_PT050H.grib2 2026-04-20 08:55 120K
20260420T06Z_MSC_RDPS_GeopotentialHeight_IsbL-0001_RLatLon0.09_PT050H.grib2 2026-04-20 08:55 272K
20260420T06Z_MSC_RDPS_GeopotentialHeight_IsbL-0005_RLatLon0.09_PT050H.grib2 2026-04-20 08:55 312K
20260420T06Z_MSC_RDPS_GeopotentialHeight_IsbL-0010_RLatLon0.09_PT050H.grib2 2026-04-20 08:55 345K
20260420T06Z_MSC_RDPS_GeopotentialHeight_IsbL-0020_RLatLon0.09_PT050H.grib2 2026-04-20 08:55 313K
20260420T06Z_MSC_RDPS_GeopotentialHeight_IsbL-0030_RLatLon0.09_PT050H.grib2 2026-04-20 08:55 315K
20260420T06Z_MSC_RDPS_GeopotentialHeight_IsbL-0050_RLatLon0.09_PT050H.grib2 2026-04-20 08:55 351K
20260420T06Z_MSC_RDPS_GeopotentialHeight_IsbL-0100_RLatLon0.09_PT050H.grib2 2026-04-20 08:55 296K
20260420T06Z_MSC_RDPS_GeopotentialHeight_IsbL-0150_RLatLon0.09_PT050H.grib2 2026-04-20 08:55 235K
20260420T06Z_MSC_RDPS_GeopotentialHeight_IsbL-0175_RLatLon0.09_PT050H.grib2 2026-04-20 08:55 268K
20260420T06Z_MSC_RDPS_GeopotentialHeight_IsbL-0200_RLatLon0.09_PT050H.grib2 2026-04-20 08:55 271K
20260420T06Z_MSC_RDPS_GeopotentialHeight_IsbL-0225_RLatLon0.09_PT050H.grib2 2026-04-20 08:55 272K
20260420T06Z_MSC_RDPS_GeopotentialHeight_IsbL-0250_RLatLon0.09_PT050H.grib2 2026-04-20 08:55 272K
20260420T06Z_MSC_RDPS_GeopotentialHeight_IsbL-0275_RLatLon0.09_PT050H.grib2 2026-04-20 08:55 271K
20260420T06Z_MSC_RDPS_GeopotentialHeight_IsbL-0300_RLatLon0.09_PT050H.grib2 2026-04-20 08:55 270K
20260420T06Z_MSC_RDPS_GeopotentialHeight_IsbL-0350_RLatLon0.09_PT050H.grib2 2026-04-20 08:55 236K
20260420T06Z_MSC_RDPS_GeopotentialHeight_IsbL-0400_RLatLon0.09_PT050H.grib2 2026-04-20 08:55 234K
20260420T06Z_MSC_RDPS_GeopotentialHeight_IsbL-0450_RLatLon0.09_PT050H.grib2 2026-04-20 08:55 305K
20260420T06Z_MSC_RDPS_GeopotentialHeight_IsbL-0500_RLatLon0.09_PT050H.grib2 2026-04-20 08:55 300K
20260420T06Z_MSC_RDPS_GeopotentialHeight_IsbL-0550_RLatLon0.09_PT050H.grib2 2026-04-20 08:55 296K
20260420T06Z_MSC_RDPS_GeopotentialHeight_IsbL-0600_RLatLon0.09_PT050H.grib2 2026-04-20 08:55 293K
20260420T06Z_MSC_RDPS_GeopotentialHeight_IsbL-0650_RLatLon0.09_PT050H.grib2 2026-04-20 08:55 289K
20260420T06Z_MSC_RDPS_GeopotentialHeight_IsbL-0700_RLatLon0.09_PT050H.grib2 2026-04-20 08:55 259K
20260420T06Z_MSC_RDPS_GeopotentialHeight_IsbL-0750_RLatLon0.09_PT050H.grib2 2026-04-20 08:55 260K
20260420T06Z_MSC_RDPS_GeopotentialHeight_IsbL-0800_RLatLon0.09_PT050H.grib2 2026-04-20 08:55 266K
20260420T06Z_MSC_RDPS_GeopotentialHeight_IsbL-0850_RLatLon0.09_PT050H.grib2 2026-04-20 08:55 271K
20260420T06Z_MSC_RDPS_GeopotentialHeight_IsbL-0875_RLatLon0.09_PT050H.grib2 2026-04-20 08:55 272K
20260420T06Z_MSC_RDPS_GeopotentialHeight_IsbL-0900_RLatLon0.09_PT050H.grib2 2026-04-20 08:55 276K
20260420T06Z_MSC_RDPS_GeopotentialHeight_IsbL-0925_RLatLon0.09_PT050H.grib2 2026-04-20 08:55 278K
20260420T06Z_MSC_RDPS_GeopotentialHeight_IsbL-0950_RLatLon0.09_PT050H.grib2 2026-04-20 08:55 281K
20260420T06Z_MSC_RDPS_GeopotentialHeight_IsbL-0970_RLatLon0.09_PT050H.grib2 2026-04-20 08:55 285K
20260420T06Z_MSC_RDPS_GeopotentialHeight_IsbL-0985_RLatLon0.09_PT050H.grib2 2026-04-20 08:55 293K
20260420T06Z_MSC_RDPS_GeopotentialHeight_IsbL-1000_RLatLon0.09_PT050H.grib2 2026-04-20 08:55 303K
20260420T06Z_MSC_RDPS_GeopotentialHeight_IsbL-1015_RLatLon0.09_PT050H.grib2 2026-04-20 08:55 315K
20260420T06Z_MSC_RDPS_Humidex_Sfc_RLatLon0.09_PT050H.grib2 2026-04-20 08:55 2.4M
20260420T06Z_MSC_RDPS_IcePellets-Accum1h_Sfc_RLatLon0.09_PT050H.grib2 2026-04-20 08:55 8.9K
20260420T06Z_MSC_RDPS_IcePellets-Accum_Sfc_RLatLon0.09_PT050H.grib2 2026-04-20 08:55 23K
20260420T06Z_MSC_RDPS_KIndex_Sfc_RLatLon0.09_PT050H.grib2 2026-04-20 08:55 2.5M
20260420T06Z_MSC_RDPS_LatentHeatNetFlux_Sfc_RLatLon0.09_PT050H.grib2 2026-04-20 08:55 412K
20260420T06Z_MSC_RDPS_LiftedIndex-MU-VT_IsbL-0500_RLatLon0.09_PT050H.grib2 2026-04-20 08:55 2.4M
20260420T06Z_MSC_RDPS_NetLongwaveRadiationFlux-Accum_Sfc_RLatLon0.09_PT050H.grib2 2026-04-20 08:55 554K
20260420T06Z_MSC_RDPS_NetShortwaveRadiationFlux-Accum_Sfc_RLatLon0.09_PT050H.grib2 2026-04-20 08:55 560K
20260420T06Z_MSC_RDPS_PlanetaryBoundaryLayerHeight_Sfc_RLatLon0.09_PT050H.grib2 2026-04-20 08:55 1.1M
20260420T06Z_MSC_RDPS_Precip-Accum1h_Sfc_RLatLon0.09_PT050H.grib2 2026-04-20 08:55 1.3M
20260420T06Z_MSC_RDPS_Precip-Accum_Sfc_RLatLon0.09_PT050H.grib2 2026-04-20 08:55 1.9M
20260420T06Z_MSC_RDPS_PrecipRate_Sfc_RLatLon0.09_PT050H.grib2 2026-04-20 08:55 192K
20260420T06Z_MSC_RDPS_PrecipType-Instant_Sfc_RLatLon0.09_PT050H.grib2 2026-04-20 08:55 617K
20260420T06Z_MSC_RDPS_Pressure-Trend3h_Sfc_RLatLon0.09_PT050H.grib2 2026-04-20 08:55 1.2M
20260420T06Z_MSC_RDPS_Pressure_MSL_RLatLon0.09_PT050H.grib2 2026-04-20 08:55 328K
20260420T06Z_MSC_RDPS_Pressure_PVU-1.5_RLatLon0.09_PT050H.grib2 2026-04-20 08:55 2.3M
20260420T06Z_MSC_RDPS_Pressure_PVU-1_RLatLon0.09_PT050H.grib2 2026-04-20 08:55 2.4M
20260420T06Z_MSC_RDPS_Pressure_PVU-2_RLatLon0.09_PT050H.grib2 2026-04-20 08:55 2.4M
20260420T06Z_MSC_RDPS_Pressure_Sfc_RLatLon0.09_PT050H.grib2 2026-04-20 08:55 501K
20260420T06Z_MSC_RDPS_RadiativeTemp_Sfc_RLatLon0.09_PT050H.grib2 2026-04-20 08:55 309K
20260420T06Z_MSC_RDPS_Rain-Accum1h_Sfc_RLatLon0.09_PT050H.grib2 2026-04-20 08:55 646K
20260420T06Z_MSC_RDPS_Rain-Accum_Sfc_RLatLon0.09_PT050H.grib2 2026-04-20 08:55 1.6M
20260420T06Z_MSC_RDPS_RelativeHumidity_AGL-2m_RLatLon0.09_PT050H.grib2 2026-04-20 08:55 1.0M
20260420T06Z_MSC_RDPS_RelativeHumidity_IsbL-0010_RLatLon0.09_PT050H.grib2 2026-04-20 08:55 625K
20260420T06Z_MSC_RDPS_RelativeHumidity_IsbL-0020_RLatLon0.09_PT050H.grib2 2026-04-20 08:55 572K
20260420T06Z_MSC_RDPS_RelativeHumidity_IsbL-0030_RLatLon0.09_PT050H.grib2 2026-04-20 08:55 549K
20260420T06Z_MSC_RDPS_RelativeHumidity_IsbL-0050_RLatLon0.09_PT050H.grib2 2026-04-20 08:55 345K
20260420T06Z_MSC_RDPS_RelativeHumidity_IsbL-0100_RLatLon0.09_PT050H.grib2 2026-04-20 08:55 377K
20260420T06Z_MSC_RDPS_RelativeHumidity_IsbL-0150_RLatLon0.09_PT050H.grib2 2026-04-20 08:55 377K
20260420T06Z_MSC_RDPS_RelativeHumidity_IsbL-0175_RLatLon0.09_PT050H.grib2 2026-04-20 08:55 469K
20260420T06Z_MSC_RDPS_RelativeHumidity_IsbL-0200_RLatLon0.09_PT050H.grib2 2026-04-20 08:55 559K
20260420T06Z_MSC_RDPS_RelativeHumidity_IsbL-0225_RLatLon0.09_PT050H.grib2 2026-04-20 08:55 633K
20260420T06Z_MSC_RDPS_RelativeHumidity_IsbL-0250_RLatLon0.09_PT050H.grib2 2026-04-20 08:55 697K
20260420T06Z_MSC_RDPS_RelativeHumidity_IsbL-0275_RLatLon0.09_PT050H.grib2 2026-04-20 08:55 714K
20260420T06Z_MSC_RDPS_RelativeHumidity_IsbL-0300_RLatLon0.09_PT050H.grib2 2026-04-20 08:55 755K
20260420T06Z_MSC_RDPS_RelativeHumidity_IsbL-0350_RLatLon0.09_PT050H.grib2 2026-04-20 08:55 774K
20260420T06Z_MSC_RDPS_RelativeHumidity_IsbL-0400_RLatLon0.09_PT050H.grib2 2026-04-20 08:55 788K
20260420T06Z_MSC_RDPS_RelativeHumidity_IsbL-0450_RLatLon0.09_PT050H.grib2 2026-04-20 08:55 800K
20260420T06Z_MSC_RDPS_RelativeHumidity_IsbL-0500_RLatLon0.09_PT050H.grib2 2026-04-20 08:55 813K
20260420T06Z_MSC_RDPS_RelativeHumidity_IsbL-0550_RLatLon0.09_PT050H.grib2 2026-04-20 08:55 839K
20260420T06Z_MSC_RDPS_RelativeHumidity_IsbL-0600_RLatLon0.09_PT050H.grib2 2026-04-20 08:55 861K
20260420T06Z_MSC_RDPS_RelativeHumidity_IsbL-0650_RLatLon0.09_PT050H.grib2 2026-04-20 08:55 869K
20260420T06Z_MSC_RDPS_RelativeHumidity_IsbL-0700_RLatLon0.09_PT050H.grib2 2026-04-20 08:55 879K
20260420T06Z_MSC_RDPS_RelativeHumidity_IsbL-0750_RLatLon0.09_PT050H.grib2 2026-04-20 08:55 917K
20260420T06Z_MSC_RDPS_RelativeHumidity_IsbL-0800_RLatLon0.09_PT050H.grib2 2026-04-20 08:55 1.0M
20260420T06Z_MSC_RDPS_RelativeHumidity_IsbL-0850_RLatLon0.09_PT050H.grib2 2026-04-20 08:55 1.0M
20260420T06Z_MSC_RDPS_RelativeHumidity_IsbL-0875_RLatLon0.09_PT050H.grib2 2026-04-20 08:55 1.0M
20260420T06Z_MSC_RDPS_RelativeHumidity_IsbL-0900_RLatLon0.09_PT050H.grib2 2026-04-20 08:55 1.0M
20260420T06Z_MSC_RDPS_RelativeHumidity_IsbL-0925_RLatLon0.09_PT050H.grib2 2026-04-20 08:55 1.1M
20260420T06Z_MSC_RDPS_RelativeHumidity_IsbL-0950_RLatLon0.09_PT050H.grib2 2026-04-20 08:55 1.1M
20260420T06Z_MSC_RDPS_RelativeHumidity_IsbL-0970_RLatLon0.09_PT050H.grib2 2026-04-20 08:55 1.0M
20260420T06Z_MSC_RDPS_RelativeHumidity_IsbL-0985_RLatLon0.09_PT050H.grib2 2026-04-20 08:55 1.0M
20260420T06Z_MSC_RDPS_RelativeHumidity_IsbL-1000_RLatLon0.09_PT050H.grib2 2026-04-20 08:55 1.0M
20260420T06Z_MSC_RDPS_RelativeHumidity_IsbL-1015_RLatLon0.09_PT050H.grib2 2026-04-20 08:55 1.0M
20260420T06Z_MSC_RDPS_Runoff-Accum_Sfc_RLatLon0.09_PT050H.grib2 2026-04-20 08:55 55K
20260420T06Z_MSC_RDPS_SWEATIndex_Sfc_RLatLon0.09_PT050H.grib2 2026-04-20 08:55 2.4M
20260420T06Z_MSC_RDPS_SeeingIndex_EAtm_RLatLon0.09_PT050H.grib2 2026-04-20 08:55 1.0M
20260420T06Z_MSC_RDPS_SensibleHeatNetFlux_Sfc_RLatLon0.09_PT050H.grib2 2026-04-20 08:55 302K
20260420T06Z_MSC_RDPS_ShowalterIndex_IsbL-0500_RLatLon0.09_PT050H.grib2 2026-04-20 08:55 2.6M
20260420T06Z_MSC_RDPS_SkyTransparencyIndex_EAtm_RLatLon0.09_PT050H.grib2 2026-04-20 08:55 722K
20260420T06Z_MSC_RDPS_Snow-Accum1h_Sfc_RLatLon0.09_PT050H.grib2 2026-04-20 08:55 456K
20260420T06Z_MSC_RDPS_Snow-Accum_Sfc_RLatLon0.09_PT050H.grib2 2026-04-20 08:55 659K
20260420T06Z_MSC_RDPS_SnowDensity_Sfc_RLatLon0.09_PT050H.grib2 2026-04-20 08:55 174K
20260420T06Z_MSC_RDPS_SnowDepth_Sfc_RLatLon0.09_PT050H.grib2 2026-04-20 08:55 713K
20260420T06Z_MSC_RDPS_SoilTemp_DBS-0to10cm_RLatLon0.09_PT050H.grib2 2026-04-20 08:55 236K
20260420T06Z_MSC_RDPS_SoilTemp_Sfc_RLatLon0.09_PT050H.grib2 2026-04-20 08:55 270K
20260420T06Z_MSC_RDPS_SoilVolumetricIceContent_Sfc_RLatLon0.09_PT050H.grib2 2026-04-20 08:55 170K
20260420T06Z_MSC_RDPS_SoilVolumetricWaterContent_DBS-0to10cm_RLatLon0.09_PT050H.grib2 2026-04-20 08:55 250K
20260420T06Z_MSC_RDPS_SoilVolumetricWaterContent_DBS-0to1cm_RLatLon0.09_PT050H.grib2 2026-04-20 08:55 338K
20260420T06Z_MSC_RDPS_SpecificHumidity_AGL-120m_RLatLon0.09_PT050H.grib2 2026-04-20 08:55 479K
20260420T06Z_MSC_RDPS_SpecificHumidity_AGL-2m_RLatLon0.09_PT050H.grib2 2026-04-20 08:55 644K
20260420T06Z_MSC_RDPS_SpecificHumidity_AGL-40m_RLatLon0.09_PT050H.grib2 2026-04-20 08:55 485K
20260420T06Z_MSC_RDPS_SpecificHumidity_AGL-80m_RLatLon0.09_PT050H.grib2 2026-04-20 08:55 481K
20260420T06Z_MSC_RDPS_SpecificHumidity_IsbL-0001_RLatLon0.09_PT050H.grib2 2026-04-20 08:55 319K
20260420T06Z_MSC_RDPS_SpecificHumidity_IsbL-0005_RLatLon0.09_PT050H.grib2 2026-04-20 08:55 406K
20260420T06Z_MSC_RDPS_SpecificHumidity_IsbL-0010_RLatLon0.09_PT050H.grib2 2026-04-20 08:55 379K
20260420T06Z_MSC_RDPS_SpecificHumidity_IsbL-0020_RLatLon0.09_PT050H.grib2 2026-04-20 08:55 373K
20260420T06Z_MSC_RDPS_SpecificHumidity_IsbL-0030_RLatLon0.09_PT050H.grib2 2026-04-20 08:55 476K
20260420T06Z_MSC_RDPS_SpecificHumidity_IsbL-0050_RLatLon0.09_PT050H.grib2 2026-04-20 08:55 472K
20260420T06Z_MSC_RDPS_SpecificHumidity_IsbL-0100_RLatLon0.09_PT050H.grib2 2026-04-20 08:55 411K
20260420T06Z_MSC_RDPS_SpecificHumidity_IsbL-0150_RLatLon0.09_PT050H.grib2 2026-04-20 08:55 437K
20260420T06Z_MSC_RDPS_SpecificHumidity_IsbL-0175_RLatLon0.09_PT050H.grib2 2026-04-20 08:55 526K
20260420T06Z_MSC_RDPS_SpecificHumidity_IsbL-0200_RLatLon0.09_PT050H.grib2 2026-04-20 08:55 549K
20260420T06Z_MSC_RDPS_SpecificHumidity_IsbL-0225_RLatLon0.09_PT050H.grib2 2026-04-20 08:55 556K
20260420T06Z_MSC_RDPS_SpecificHumidity_IsbL-0250_RLatLon0.09_PT050H.grib2 2026-04-20 08:55 556K
20260420T06Z_MSC_RDPS_SpecificHumidity_IsbL-0275_RLatLon0.09_PT050H.grib2 2026-04-20 08:55 472K
20260420T06Z_MSC_RDPS_SpecificHumidity_IsbL-0300_RLatLon0.09_PT050H.grib2 2026-04-20 08:55 545K
20260420T06Z_MSC_RDPS_SpecificHumidity_IsbL-0350_RLatLon0.09_PT050H.grib2 2026-04-20 08:55 537K
20260420T06Z_MSC_RDPS_SpecificHumidity_IsbL-0400_RLatLon0.09_PT050H.grib2 2026-04-20 08:55 519K
20260420T06Z_MSC_RDPS_SpecificHumidity_IsbL-0450_RLatLon0.09_PT050H.grib2 2026-04-20 08:55 575K
20260420T06Z_MSC_RDPS_SpecificHumidity_IsbL-0500_RLatLon0.09_PT050H.grib2 2026-04-20 08:55 515K
20260420T06Z_MSC_RDPS_SpecificHumidity_IsbL-0550_RLatLon0.09_PT050H.grib2 2026-04-20 08:55 579K
20260420T06Z_MSC_RDPS_SpecificHumidity_IsbL-0600_RLatLon0.09_PT050H.grib2 2026-04-20 08:55 648K
20260420T06Z_MSC_RDPS_SpecificHumidity_IsbL-0650_RLatLon0.09_PT050H.grib2 2026-04-20 08:55 560K
20260420T06Z_MSC_RDPS_SpecificHumidity_IsbL-0700_RLatLon0.09_PT050H.grib2 2026-04-20 08:55 592K
20260420T06Z_MSC_RDPS_SpecificHumidity_IsbL-0750_RLatLon0.09_PT050H.grib2 2026-04-20 08:55 642K
20260420T06Z_MSC_RDPS_SpecificHumidity_IsbL-0800_RLatLon0.09_PT050H.grib2 2026-04-20 08:55 718K
20260420T06Z_MSC_RDPS_SpecificHumidity_IsbL-0850_RLatLon0.09_PT050H.grib2 2026-04-20 08:55 785K
20260420T06Z_MSC_RDPS_SpecificHumidity_IsbL-0875_RLatLon0.09_PT050H.grib2 2026-04-20 08:55 800K
20260420T06Z_MSC_RDPS_SpecificHumidity_IsbL-0900_RLatLon0.09_PT050H.grib2 2026-04-20 08:55 812K
20260420T06Z_MSC_RDPS_SpecificHumidity_IsbL-0925_RLatLon0.09_PT050H.grib2 2026-04-20 08:55 815K
20260420T06Z_MSC_RDPS_SpecificHumidity_IsbL-0950_RLatLon0.09_PT050H.grib2 2026-04-20 08:55 820K
20260420T06Z_MSC_RDPS_SpecificHumidity_IsbL-0970_RLatLon0.09_PT050H.grib2 2026-04-20 08:55 815K
20260420T06Z_MSC_RDPS_SpecificHumidity_IsbL-0985_RLatLon0.09_PT050H.grib2 2026-04-20 08:55 810K
20260420T06Z_MSC_RDPS_SpecificHumidity_IsbL-1000_RLatLon0.09_PT050H.grib2 2026-04-20 08:55 662K
20260420T06Z_MSC_RDPS_SpecificHumidity_IsbL-1015_RLatLon0.09_PT050H.grib2 2026-04-20 08:55 654K
20260420T06Z_MSC_RDPS_SpecificHumidity_Sfc_RLatLon0.09_PT050H.grib2 2026-04-20 08:55 288K
20260420T06Z_MSC_RDPS_StormRelativeHelicity_EtaL-10000_RLatLon0.09_PT050H.grib2 2026-04-20 08:55 1.2M
20260420T06Z_MSC_RDPS_StormSeverityIndex_EtaL-10000_RLatLon0.09_PT050H.grib2 2026-04-20 08:55 1.2M
20260420T06Z_MSC_RDPS_Thickness_IsbL-0850to0700_RLatLon0.09_PT050H.grib2 2026-04-20 08:55 180K
20260420T06Z_MSC_RDPS_Thickness_IsbL-1000to0500_RLatLon0.09_PT050H.grib2 2026-04-20 08:55 203K
20260420T06Z_MSC_RDPS_Thickness_IsbL-1000to0850_RLatLon0.09_PT050H.grib2 2026-04-20 08:55 262K
20260420T06Z_MSC_RDPS_TotalCloudCover_Sfc_RLatLon0.09_PT050H.grib2 2026-04-20 08:55 662K
20260420T06Z_MSC_RDPS_TotalTotalsIndex_Sfc_RLatLon0.09_PT050H.grib2 2026-04-20 08:55 2.4M
20260420T06Z_MSC_RDPS_UVIndex-ClearSky_Sfc_RLatLon0.09_PT050H.grib2 2026-04-20 08:55 82K
20260420T06Z_MSC_RDPS_UVIndex_Sfc_RLatLon0.09_PT050H.grib2 2026-04-20 08:55 135K
20260420T06Z_MSC_RDPS_UpwardLongwaveRadiationFlux_NTAtm_RLatLon0.09_PT050H.grib2 2026-04-20 08:55 483K
20260420T06Z_MSC_RDPS_UpwardShortwaveRadiationFlux_NTAtm_RLatLon0.09_PT050H.grib2 2026-04-20 08:55 120K
20260420T06Z_MSC_RDPS_VerticalVelocity_IsbL-0250_RLatLon0.09_PT050H.grib2 2026-04-20 08:55 592K
20260420T06Z_MSC_RDPS_VerticalVelocity_IsbL-0500_RLatLon0.09_PT050H.grib2 2026-04-20 08:55 562K
20260420T06Z_MSC_RDPS_VerticalVelocity_IsbL-0700_RLatLon0.09_PT050H.grib2 2026-04-20 08:55 570K
20260420T06Z_MSC_RDPS_VerticalVelocity_IsbL-0850_RLatLon0.09_PT050H.grib2 2026-04-20 08:55 703K
20260420T06Z_MSC_RDPS_VerticalWindShear_EtaL-6500_RLatLon0.09_PT050H.grib2 2026-04-20 08:55 1.2M
20260420T06Z_MSC_RDPS_WindChill_Sfc_RLatLon0.09_PT050H.grib2 2026-04-20 08:55 1.2M
20260420T06Z_MSC_RDPS_WindDir_AGL-10m_RLatLon0.09_PT050H.grib2 2026-04-20 08:55 1.0M
20260420T06Z_MSC_RDPS_WindDir_AGL-120m_RLatLon0.09_PT050H.grib2 2026-04-20 08:55 605K
20260420T06Z_MSC_RDPS_WindDir_AGL-40m_RLatLon0.09_PT050H.grib2 2026-04-20 08:55 640K
20260420T06Z_MSC_RDPS_WindDir_AGL-80m_RLatLon0.09_PT050H.grib2 2026-04-20 08:55 619K
20260420T06Z_MSC_RDPS_WindDir_IsbL-0001_RLatLon0.09_PT050H.grib2 2026-04-20 08:55 293K
20260420T06Z_MSC_RDPS_WindDir_IsbL-0005_RLatLon0.09_PT050H.grib2 2026-04-20 08:55 373K
20260420T06Z_MSC_RDPS_WindDir_IsbL-0010_RLatLon0.09_PT050H.grib2 2026-04-20 08:55 375K
20260420T06Z_MSC_RDPS_WindDir_IsbL-0020_RLatLon0.09_PT050H.grib2 2026-04-20 08:55 416K
20260420T06Z_MSC_RDPS_WindDir_IsbL-0030_RLatLon0.09_PT050H.grib2 2026-04-20 08:55 420K
20260420T06Z_MSC_RDPS_WindDir_IsbL-0050_RLatLon0.09_PT050H.grib2 2026-04-20 08:55 423K
20260420T06Z_MSC_RDPS_WindDir_IsbL-0100_RLatLon0.09_PT050H.grib2 2026-04-20 08:55 421K
20260420T06Z_MSC_RDPS_WindDir_IsbL-0150_RLatLon0.09_PT050H.grib2 2026-04-20 08:55 419K
20260420T06Z_MSC_RDPS_WindDir_IsbL-0175_RLatLon0.09_PT050H.grib2 2026-04-20 08:55 438K
20260420T06Z_MSC_RDPS_WindDir_IsbL-0200_RLatLon0.09_PT050H.grib2 2026-04-20 08:55 445K
20260420T06Z_MSC_RDPS_WindDir_IsbL-0225_RLatLon0.09_PT050H.grib2 2026-04-20 08:55 448K
20260420T06Z_MSC_RDPS_WindDir_IsbL-0250_RLatLon0.09_PT050H.grib2 2026-04-20 08:55 449K
20260420T06Z_MSC_RDPS_WindDir_IsbL-0275_RLatLon0.09_PT050H.grib2 2026-04-20 08:55 465K
20260420T06Z_MSC_RDPS_WindDir_IsbL-0300_RLatLon0.09_PT050H.grib2 2026-04-20 08:55 460K
20260420T06Z_MSC_RDPS_WindDir_IsbL-0350_RLatLon0.09_PT050H.grib2 2026-04-20 08:55 486K
20260420T06Z_MSC_RDPS_WindDir_IsbL-0400_RLatLon0.09_PT050H.grib2 2026-04-20 08:55 506K
20260420T06Z_MSC_RDPS_WindDir_IsbL-0450_RLatLon0.09_PT050H.grib2 2026-04-20 08:55 524K
20260420T06Z_MSC_RDPS_WindDir_IsbL-0500_RLatLon0.09_PT050H.grib2 2026-04-20 08:55 543K
20260420T06Z_MSC_RDPS_WindDir_IsbL-0550_RLatLon0.09_PT050H.grib2 2026-04-20 08:55 565K
20260420T06Z_MSC_RDPS_WindDir_IsbL-0600_RLatLon0.09_PT050H.grib2 2026-04-20 08:55 595K
20260420T06Z_MSC_RDPS_WindDir_IsbL-0650_RLatLon0.09_PT050H.grib2 2026-04-20 08:55 639K
20260420T06Z_MSC_RDPS_WindDir_IsbL-0700_RLatLon0.09_PT050H.grib2 2026-04-20 08:55 679K
20260420T06Z_MSC_RDPS_WindDir_IsbL-0750_RLatLon0.09_PT050H.grib2 2026-04-20 08:55 727K
20260420T06Z_MSC_RDPS_WindDir_IsbL-0800_RLatLon0.09_PT050H.grib2 2026-04-20 08:55 799K
20260420T06Z_MSC_RDPS_WindDir_IsbL-0850_RLatLon0.09_PT050H.grib2 2026-04-20 08:55 861K
20260420T06Z_MSC_RDPS_WindDir_IsbL-0875_RLatLon0.09_PT050H.grib2 2026-04-20 08:55 882K
20260420T06Z_MSC_RDPS_WindDir_IsbL-0900_RLatLon0.09_PT050H.grib2 2026-04-20 08:55 898K
20260420T06Z_MSC_RDPS_WindDir_IsbL-0925_RLatLon0.09_PT050H.grib2 2026-04-20 08:55 912K
20260420T06Z_MSC_RDPS_WindDir_IsbL-0950_RLatLon0.09_PT050H.grib2 2026-04-20 08:55 915K
20260420T06Z_MSC_RDPS_WindDir_IsbL-0970_RLatLon0.09_PT050H.grib2 2026-04-20 08:55 921K
20260420T06Z_MSC_RDPS_WindDir_IsbL-0985_RLatLon0.09_PT050H.grib2 2026-04-20 08:55 932K
20260420T06Z_MSC_RDPS_WindDir_IsbL-1000_RLatLon0.09_PT050H.grib2 2026-04-20 08:55 950K
20260420T06Z_MSC_RDPS_WindDir_IsbL-1015_RLatLon0.09_PT050H.grib2 2026-04-20 08:55 969K
20260420T06Z_MSC_RDPS_WindGust-Max_AGL-10m_RLatLon0.09_PT050H.grib2 2026-04-20 08:55 1.0M
20260420T06Z_MSC_RDPS_WindGust-Min_AGL-10m_RLatLon0.09_PT050H.grib2 2026-04-20 08:55 1.0M
20260420T06Z_MSC_RDPS_WindGust_AGL-10m_RLatLon0.09_PT050H.grib2 2026-04-20 08:55 1.0M
20260420T06Z_MSC_RDPS_WindSpeed_AGL-10m_RLatLon0.09_PT050H.grib2 2026-04-20 08:55 852K
20260420T06Z_MSC_RDPS_WindSpeed_AGL-120m_RLatLon0.09_PT050H.grib2 2026-04-20 08:55 551K
20260420T06Z_MSC_RDPS_WindSpeed_AGL-40m_RLatLon0.09_PT050H.grib2 2026-04-20 08:55 554K
20260420T06Z_MSC_RDPS_WindSpeed_AGL-80m_RLatLon0.09_PT050H.grib2 2026-04-20 08:55 552K
20260420T06Z_MSC_RDPS_WindSpeed_IsbL-0001_RLatLon0.09_PT050H.grib2 2026-04-20 08:55 244K
20260420T06Z_MSC_RDPS_WindSpeed_IsbL-0005_RLatLon0.09_PT050H.grib2 2026-04-20 08:55 299K
20260420T06Z_MSC_RDPS_WindSpeed_IsbL-0010_RLatLon0.09_PT050H.grib2 2026-04-20 08:55 314K
20260420T06Z_MSC_RDPS_WindSpeed_IsbL-0020_RLatLon0.09_PT050H.grib2 2026-04-20 08:55 334K
20260420T06Z_MSC_RDPS_WindSpeed_IsbL-0030_RLatLon0.09_PT050H.grib2 2026-04-20 08:55 335K
20260420T06Z_MSC_RDPS_WindSpeed_IsbL-0050_RLatLon0.09_PT050H.grib2 2026-04-20 08:55 486K
20260420T06Z_MSC_RDPS_WindSpeed_IsbL-0100_RLatLon0.09_PT050H.grib2 2026-04-20 08:55 499K
20260420T06Z_MSC_RDPS_WindSpeed_IsbL-0150_RLatLon0.09_PT050H.grib2 2026-04-20 08:55 385K
20260420T06Z_MSC_RDPS_WindSpeed_IsbL-0175_RLatLon0.09_PT050H.grib2 2026-04-20 08:55 409K
20260420T06Z_MSC_RDPS_WindSpeed_IsbL-0200_RLatLon0.09_PT050H.grib2 2026-04-20 08:55 425K
20260420T06Z_MSC_RDPS_WindSpeed_IsbL-0225_RLatLon0.09_PT050H.grib2 2026-04-20 08:55 431K
20260420T06Z_MSC_RDPS_WindSpeed_IsbL-0250_RLatLon0.09_PT050H.grib2 2026-04-20 08:55 451K
20260420T06Z_MSC_RDPS_WindSpeed_IsbL-0275_RLatLon0.09_PT050H.grib2 2026-04-20 08:55 465K
20260420T06Z_MSC_RDPS_WindSpeed_IsbL-0300_RLatLon0.09_PT050H.grib2 2026-04-20 08:55 461K
20260420T06Z_MSC_RDPS_WindSpeed_IsbL-0350_RLatLon0.09_PT050H.grib2 2026-04-20 08:55 470K
20260420T06Z_MSC_RDPS_WindSpeed_IsbL-0400_RLatLon0.09_PT050H.grib2 2026-04-20 08:55 476K
20260420T06Z_MSC_RDPS_WindSpeed_IsbL-0450_RLatLon0.09_PT050H.grib2 2026-04-20 08:55 464K
20260420T06Z_MSC_RDPS_WindSpeed_IsbL-0500_RLatLon0.09_PT050H.grib2 2026-04-20 08:55 468K
20260420T06Z_MSC_RDPS_WindSpeed_IsbL-0550_RLatLon0.09_PT050H.grib2 2026-04-20 08:55 473K
20260420T06Z_MSC_RDPS_WindSpeed_IsbL-0600_RLatLon0.09_PT050H.grib2 2026-04-20 08:55 603K
20260420T06Z_MSC_RDPS_WindSpeed_IsbL-0650_RLatLon0.09_PT050H.grib2 2026-04-20 08:55 622K
20260420T06Z_MSC_RDPS_WindSpeed_IsbL-0700_RLatLon0.09_PT050H.grib2 2026-04-20 08:55 683K
20260420T06Z_MSC_RDPS_WindSpeed_IsbL-0750_RLatLon0.09_PT050H.grib2 2026-04-20 08:55 713K
20260420T06Z_MSC_RDPS_WindSpeed_IsbL-0800_RLatLon0.09_PT050H.grib2 2026-04-20 08:55 767K
20260420T06Z_MSC_RDPS_WindSpeed_IsbL-0850_RLatLon0.09_PT050H.grib2 2026-04-20 08:55 821K
20260420T06Z_MSC_RDPS_WindSpeed_IsbL-0875_RLatLon0.09_PT050H.grib2 2026-04-20 08:55 841K
20260420T06Z_MSC_RDPS_WindSpeed_IsbL-0900_RLatLon0.09_PT050H.grib2 2026-04-20 08:55 858K
20260420T06Z_MSC_RDPS_WindSpeed_IsbL-0925_RLatLon0.09_PT050H.grib2 2026-04-20 08:55 871K
20260420T06Z_MSC_RDPS_WindSpeed_IsbL-0950_RLatLon0.09_PT050H.grib2 2026-04-20 08:55 869K
20260420T06Z_MSC_RDPS_WindSpeed_IsbL-0970_RLatLon0.09_PT050H.grib2 2026-04-20 08:55 868K
20260420T06Z_MSC_RDPS_WindSpeed_IsbL-0985_RLatLon0.09_PT050H.grib2 2026-04-20 08:55 864K
20260420T06Z_MSC_RDPS_WindSpeed_IsbL-1000_RLatLon0.09_PT050H.grib2 2026-04-20 08:55 860K
20260420T06Z_MSC_RDPS_WindSpeed_IsbL-1015_RLatLon0.09_PT050H.grib2 2026-04-20 08:55 853K
20260420T06Z_MSC_RDPS_WindU_AGL-10m_RLatLon0.09_PT050H.grib2 2026-04-20 08:55 437K
20260420T06Z_MSC_RDPS_WindU_AGL-120m_RLatLon0.09_PT050H.grib2 2026-04-20 08:55 427K
20260420T06Z_MSC_RDPS_WindU_AGL-40m_RLatLon0.09_PT050H.grib2 2026-04-20 08:55 547K
20260420T06Z_MSC_RDPS_WindU_AGL-80m_RLatLon0.09_PT050H.grib2 2026-04-20 08:55 546K
20260420T06Z_MSC_RDPS_WindU_IsbL-0001_RLatLon0.09_PT050H.grib2 2026-04-20 08:55 287K
20260420T06Z_MSC_RDPS_WindU_IsbL-0005_RLatLon0.09_PT050H.grib2 2026-04-20 08:55 290K
20260420T06Z_MSC_RDPS_WindU_IsbL-0010_RLatLon0.09_PT050H.grib2 2026-04-20 08:55 347K
20260420T06Z_MSC_RDPS_WindU_IsbL-0020_RLatLon0.09_PT050H.grib2 2026-04-20 08:55 364K
20260420T06Z_MSC_RDPS_WindU_IsbL-0030_RLatLon0.09_PT050H.grib2 2026-04-20 08:55 366K
20260420T06Z_MSC_RDPS_WindU_IsbL-0050_RLatLon0.09_PT050H.grib2 2026-04-20 08:55 371K
20260420T06Z_MSC_RDPS_WindU_IsbL-0100_RLatLon0.09_PT050H.grib2 2026-04-20 08:55 453K
20260420T06Z_MSC_RDPS_WindU_IsbL-0150_RLatLon0.09_PT050H.grib2 2026-04-20 08:55 402K
20260420T06Z_MSC_RDPS_WindU_IsbL-0175_RLatLon0.09_PT050H.grib2 2026-04-20 08:55 424K
20260420T06Z_MSC_RDPS_WindU_IsbL-0200_RLatLon0.09_PT050H.grib2 2026-04-20 08:55 439K
20260420T06Z_MSC_RDPS_WindU_IsbL-0225_RLatLon0.09_PT050H.grib2 2026-04-20 08:55 443K
20260420T06Z_MSC_RDPS_WindU_IsbL-0250_RLatLon0.09_PT050H.grib2 2026-04-20 08:55 343K
20260420T06Z_MSC_RDPS_WindU_IsbL-0275_RLatLon0.09_PT050H.grib2 2026-04-20 08:55 354K
20260420T06Z_MSC_RDPS_WindU_IsbL-0300_RLatLon0.09_PT050H.grib2 2026-04-20 08:55 350K
20260420T06Z_MSC_RDPS_WindU_IsbL-0350_RLatLon0.09_PT050H.grib2 2026-04-20 08:55 357K
20260420T06Z_MSC_RDPS_WindU_IsbL-0400_RLatLon0.09_PT050H.grib2 2026-04-20 08:55 361K
20260420T06Z_MSC_RDPS_WindU_IsbL-0450_RLatLon0.09_PT050H.grib2 2026-04-20 08:55 468K
20260420T06Z_MSC_RDPS_WindU_IsbL-0500_RLatLon0.09_PT050H.grib2 2026-04-20 08:55 473K
20260420T06Z_MSC_RDPS_WindU_IsbL-0550_RLatLon0.09_PT050H.grib2 2026-04-20 08:55 478K
20260420T06Z_MSC_RDPS_WindU_IsbL-0600_RLatLon0.09_PT050H.grib2 2026-04-20 08:55 487K
20260420T06Z_MSC_RDPS_WindU_IsbL-0650_RLatLon0.09_PT050H.grib2 2026-04-20 08:55 503K
20260420T06Z_MSC_RDPS_WindU_IsbL-0700_RLatLon0.09_PT050H.grib2 2026-04-20 08:55 520K
20260420T06Z_MSC_RDPS_WindU_IsbL-0750_RLatLon0.09_PT050H.grib2 2026-04-20 08:55 532K
20260420T06Z_MSC_RDPS_WindU_IsbL-0800_RLatLon0.09_PT050H.grib2 2026-04-20 08:55 580K
20260420T06Z_MSC_RDPS_WindU_IsbL-0850_RLatLon0.09_PT050H.grib2 2026-04-20 08:55 627K
20260420T06Z_MSC_RDPS_WindU_IsbL-0875_RLatLon0.09_PT050H.grib2 2026-04-20 08:55 644K
20260420T06Z_MSC_RDPS_WindU_IsbL-0900_RLatLon0.09_PT050H.grib2 2026-04-20 08:55 657K
20260420T06Z_MSC_RDPS_WindU_IsbL-0925_RLatLon0.09_PT050H.grib2 2026-04-20 08:55 666K
20260420T06Z_MSC_RDPS_WindU_IsbL-0950_RLatLon0.09_PT050H.grib2 2026-04-20 08:55 664K
20260420T06Z_MSC_RDPS_WindU_IsbL-0970_RLatLon0.09_PT050H.grib2 2026-04-20 08:55 661K
20260420T06Z_MSC_RDPS_WindU_IsbL-0985_RLatLon0.09_PT050H.grib2 2026-04-20 08:55 798K
20260420T06Z_MSC_RDPS_WindU_IsbL-1000_RLatLon0.09_PT050H.grib2 2026-04-20 08:55 796K
20260420T06Z_MSC_RDPS_WindU_IsbL-1015_RLatLon0.09_PT050H.grib2 2026-04-20 08:55 790K
20260420T06Z_MSC_RDPS_WindV_AGL-10m_RLatLon0.09_PT050H.grib2 2026-04-20 08:55 438K
20260420T06Z_MSC_RDPS_WindV_AGL-120m_RLatLon0.09_PT050H.grib2 2026-04-20 08:55 427K
20260420T06Z_MSC_RDPS_WindV_AGL-40m_RLatLon0.09_PT050H.grib2 2026-04-20 08:55 548K
20260420T06Z_MSC_RDPS_WindV_AGL-80m_RLatLon0.09_PT050H.grib2 2026-04-20 08:55 546K
20260420T06Z_MSC_RDPS_WindV_IsbL-0001_RLatLon0.09_PT050H.grib2 2026-04-20 08:55 287K
20260420T06Z_MSC_RDPS_WindV_IsbL-0005_RLatLon0.09_PT050H.grib2 2026-04-20 08:55 288K
20260420T06Z_MSC_RDPS_WindV_IsbL-0010_RLatLon0.09_PT050H.grib2 2026-04-20 08:55 346K
20260420T06Z_MSC_RDPS_WindV_IsbL-0020_RLatLon0.09_PT050H.grib2 2026-04-20 08:55 326K
20260420T06Z_MSC_RDPS_WindV_IsbL-0030_RLatLon0.09_PT050H.grib2 2026-04-20 08:55 367K
20260420T06Z_MSC_RDPS_WindV_IsbL-0050_RLatLon0.09_PT050H.grib2 2026-04-20 08:55 367K
20260420T06Z_MSC_RDPS_WindV_IsbL-0100_RLatLon0.09_PT050H.grib2 2026-04-20 08:55 347K
20260420T06Z_MSC_RDPS_WindV_IsbL-0150_RLatLon0.09_PT050H.grib2 2026-04-20 08:55 397K
20260420T06Z_MSC_RDPS_WindV_IsbL-0175_RLatLon0.09_PT050H.grib2 2026-04-20 08:55 420K
20260420T06Z_MSC_RDPS_WindV_IsbL-0200_RLatLon0.09_PT050H.grib2 2026-04-20 08:55 337K
20260420T06Z_MSC_RDPS_WindV_IsbL-0225_RLatLon0.09_PT050H.grib2 2026-04-20 08:55 341K
20260420T06Z_MSC_RDPS_WindV_IsbL-0250_RLatLon0.09_PT050H.grib2 2026-04-20 08:55 342K
20260420T06Z_MSC_RDPS_WindV_IsbL-0275_RLatLon0.09_PT050H.grib2 2026-04-20 08:55 377K
20260420T06Z_MSC_RDPS_WindV_IsbL-0300_RLatLon0.09_PT050H.grib2 2026-04-20 08:55 373K
20260420T06Z_MSC_RDPS_WindV_IsbL-0350_RLatLon0.09_PT050H.grib2 2026-04-20 08:55 381K
20260420T06Z_MSC_RDPS_WindV_IsbL-0400_RLatLon0.09_PT050H.grib2 2026-04-20 08:55 362K
20260420T06Z_MSC_RDPS_WindV_IsbL-0450_RLatLon0.09_PT050H.grib2 2026-04-20 08:55 365K
20260420T06Z_MSC_RDPS_WindV_IsbL-0500_RLatLon0.09_PT050H.grib2 2026-04-20 08:55 472K
20260420T06Z_MSC_RDPS_WindV_IsbL-0550_RLatLon0.09_PT050H.grib2 2026-04-20 08:55 477K
20260420T06Z_MSC_RDPS_WindV_IsbL-0600_RLatLon0.09_PT050H.grib2 2026-04-20 08:55 486K
20260420T06Z_MSC_RDPS_WindV_IsbL-0650_RLatLon0.09_PT050H.grib2 2026-04-20 08:55 502K
20260420T06Z_MSC_RDPS_WindV_IsbL-0700_RLatLon0.09_PT050H.grib2 2026-04-20 08:55 518K
20260420T06Z_MSC_RDPS_WindV_IsbL-0750_RLatLon0.09_PT050H.grib2 2026-04-20 08:55 529K
20260420T06Z_MSC_RDPS_WindV_IsbL-0800_RLatLon0.09_PT050H.grib2 2026-04-20 08:55 577K
20260420T06Z_MSC_RDPS_WindV_IsbL-0850_RLatLon0.09_PT050H.grib2 2026-04-20 08:55 626K
20260420T06Z_MSC_RDPS_WindV_IsbL-0875_RLatLon0.09_PT050H.grib2 2026-04-20 08:55 643K
20260420T06Z_MSC_RDPS_WindV_IsbL-0900_RLatLon0.09_PT050H.grib2 2026-04-20 08:55 654K
20260420T06Z_MSC_RDPS_WindV_IsbL-0925_RLatLon0.09_PT050H.grib2 2026-04-20 08:55 663K
20260420T06Z_MSC_RDPS_WindV_IsbL-0950_RLatLon0.09_PT050H.grib2 2026-04-20 08:55 663K
20260420T06Z_MSC_RDPS_WindV_IsbL-0970_RLatLon0.09_PT050H.grib2 2026-04-20 08:55 661K
20260420T06Z_MSC_RDPS_WindV_IsbL-0985_RLatLon0.09_PT050H.grib2 2026-04-20 08:55 659K
20260420T06Z_MSC_RDPS_WindV_IsbL-1000_RLatLon0.09_PT050H.grib2 2026-04-20 08:55 796K
20260420T06Z_MSC_RDPS_WindV_IsbL-1015_RLatLon0.09_PT050H.grib2 2026-04-20 08:55 791K